TimeAKDT,TemperatureF,Dew PointF,Humidity,Sea Level PressureIn,VisibilityMPH,Wind Direction,Wind SpeedMPH,Gust SpeedMPH,PrecipitationIn,Events,Conditions,WindDirDegrees,DateUTC
12:53 AM,37.0,28.0,70,30.27,10.0,Calm,Calm,-,N/A,,Mostly Cloudy,0,2013-05-07 08:53:00
1:53 AM,37.0,28.0,70,30.28,10.0,Calm,Calm,-,N/A,,Mostly Cloudy,0,2013-05-07 09:53:00
2:53 AM,36.0,26.1,67,30.28,10.0,Calm,Calm,-,N/A,,Overcast,0,2013-05-07 10:53:00
3:53 AM,35.1,27.0,72,30.28,10.0,Calm,Calm,-,N/A,,Overcast,0,2013-05-07 11:53:00
4:53 AM,36.0,27.0,70,30.28,10.0,Calm,Calm,-,N/A,,Overcast,0,2013-05-07 12:53:00
5:53 AM,36.0,26.1,67,30.27,10.0,Calm,Calm,-,N/A,,Overcast,0,2013-05-07 13:53:00
6:53 AM,37.0,28.0,70,30.27,10.0,Calm,Calm,-,N/A,,Overcast,0,2013-05-07 14:53:00
7:53 AM,37.9,27.0,65,30.28,10.0,Calm,Calm,-,N/A,,Overcast,0,2013-05-07 15:53:00
8:53 AM,39.9,27.0,60,30.29,10.0,North,4.6,-,N/A,,Mostly Cloudy,360,2013-05-07 16:53:00
9:53 AM,43.0,25.0,49,30.28,10.0,NW,5.8,-,N/A,,Mostly Cloudy,320,2013-05-07 17:53:00
10:53 AM,43.0,23.0,45,30.28,10.0,North,4.6,-,N/A,,Scattered Clouds,350,2013-05-07 18:53:00
11:53 AM,46.0,25.0,44,30.28,10.0,WNW,4.6,-,N/A,,Mostly Cloudy,290,2013-05-07 19:53:00
12:53 PM,46.0,28.0,50,30.28,10.0,WNW,6.9,-,N/A,,Scattered Clouds,300,2013-05-07 20:53:00
1:53 PM,48.0,28.0,46,30.27,10.0,WNW,8.1,-,N/A,,Mostly Cloudy,300,2013-05-07 21:53:00
2:53 PM,50.0,27.0,41,30.27,10.0,West,9.2,-,N/A,,Mostly Cloudy,270,2013-05-07 22:53:00
3:53 PM,50.0,26.1,39,30.26,10.0,WNW,5.8,-,N/A,,Mostly Cloudy,290,2013-05-07 23:53:00
4:53 PM,48.0,25.0,41,30.26,10.0,WNW,9.2,-,N/A,,Mostly Cloudy,290,2013-05-08 00:53:00
5:53 PM,48.0,25.0,41,30.25,10.0,West,6.9,-,N/A,,Overcast,260,2013-05-08 01:53:00
6:53 PM,46.9,26.1,44,30.25,10.0,West,5.8,-,N/A,,Overcast,280,2013-05-08 02:53:00
7:53 PM,45.0,24.1,44,30.24,10.0,NW,5.8,-,N/A,,Overcast,320,2013-05-08 03:53:00
8:53 PM,46.0,23.0,40,30.24,10.0,West,3.5,-,N/A,,Overcast,280,2013-05-08 04:53:00
9:53 PM,44.1,26.1,49,30.24,10.0,Calm,Calm,-,N/A,,Overcast,0,2013-05-08 05:53:00
10:53 PM,41.0,27.0,57,30.25,10.0,WSW,3.5,-,N/A,,Mostly Cloudy,250,2013-05-08 06:53:00
11:53 PM,39.9,25.0,55,30.26,10.0,Calm,Calm,-,N/A,,Mostly Cloudy,0,2013-05-08 07:53:00